Lobo

Go HERE for most recent data if this page is not up to date.

Jump to table bottom
Date/Time Temp deg F RH % 24 Hr Snow (in) Snow Depth (in) H2O (in)
06/14 10:00 57.7 35 "NAN" 0.8 0.00
06/14 09:00 54.5 42 "NAN" 0.7 0.00
06/14 08:00 53.5 50 "NAN" 0.7 0.00
06/14 07:00 49.8 42 "NAN" 1.3 0.00
06/14 06:00 51.7 50 "NAN" 0.9 0.00
06/14 05:00 55.3 35 "NAN" 0.7 0.00
06/14 04:00 54.7 44 "NAN" 0.6 0.00
06/14 03:00 56.8 38 "NAN" 0.7 0.00
06/14 02:00 56.3 36 "NAN" 0.7 0.00
06/14 01:00 54.5 35 "NAN" 0.7 0.00
06/14 00:00 56.7 33 "NAN" 0.6 0.00
06/13 23:00 58.1 30 "NAN" 0.7 0.00
06/13 22:00 59.1 29 "NAN" 0.6 0.00
06/13 21:00 59.8 27 "NAN" 0.7 0.00
06/13 20:00 60.5 26 "NAN" 0.7 0.00
06/13 19:00 62.1 26 "NAN" 0.7 0.00
06/13 18:00 63.1 24 "NAN" 0.8 0.00
06/13 17:00 63.6 21 "NAN" 0.7 0.00
06/13 16:00 63.2 21 "NAN" 1.0 0.00
06/13 15:00 62.8 16 "NAN" 1.0 0.00
06/13 14:00 61.2 18 "NAN" 1.0 0.00
06/13 13:00 59.8 17 "NAN" 1.0 0.00
06/13 12:00 58.4 18 "NAN" 1.2 0.00
06/13 11:00 55.0 20 "NAN" 0.9 0.00
06/13 10:00 51.2 32 "NAN" 0.9 0.00
06/13 09:00 46.5 32 "NAN" 0.6 0.00
06/13 08:00 44.1 37 "NAN" 0.6 0.00
06/13 07:00 42.7 36 "NAN" 0.5 0.00
06/13 06:00 41.8 34 "NAN" 0.6 0.00
06/13 05:00 42.7 37 "NAN" 0.6 0.00
06/13 04:00 43.3 39 "NAN" 0.6 0.00
06/13 03:00 43.9 38 "NAN" 0.6 0.00
06/13 02:00 45.7 36 "NAN" 0.6 0.00
06/13 01:00 47.2 36 "NAN" 0.6 0.00
06/13 00:00 49.4 40 "NAN" 0.5 0.00
.